When you browse on this site, cookies collect data to enhance your experience and personalize the content and advertising you see.
Visit our Privacy Policy to learn more. By continuing to use the site, you agree to this use of cookies and data.
  • Em Portugal
  • Lista de países
  • Para 7 dias
  • Temperatura da água
  • Mapa do tempo
  • Widgets de tempo
  • user-avatar
    Iniciar Sessão

    Previsão horária em Mikshino

    Hoje, 22 Janeiro, Quarta-feira

    Tempo Temperatura Precipitação Vento Pressão Humidade
    00:00 -3°C° 0 mm 6 m/s 735 mmHg 77%
    01:00 -2°C° 0 mm 5 m/s 735 mmHg 78%
    02:00 -2°C° 0 mm 5 m/s 735 mmHg 81%
    03:00 -2°C° 0 mm 4 m/s 734 mmHg 82%
    04:00 -3°C° 0 mm 4 m/s 733 mmHg 83%
    05:00 -3°C° 0 mm 4 m/s 733 mmHg 84%
    06:00 -3°C° 0 mm 4 m/s 732 mmHg 85%
    07:00 -3°C° 0 mm 4 m/s 732 mmHg 85%
    08:00 -3°C° 0 mm 4 m/s 732 mmHg 86%
    09:00 -3°C° 0 mm 4 m/s 731 mmHg 85%
    10:00 -2°C° 0 mm 4 m/s 731 mmHg 84%
    11:00 -2°C° 0 mm 4 m/s 730 mmHg 83%
    12:00 -2°C° 0.6 mm 4 m/s 730 mmHg 82%
    13:00 -2°C° 0.6 mm 4 m/s 730 mmHg 82%
    14:00 -2°C° 0.6 mm 5 m/s 730 mmHg 81%
    15:00 -3°C° 0 mm 4 m/s 731 mmHg 81%
    16:00 -4°C° 0 mm 4 m/s 731 mmHg 82%
    17:00 -5°C° 0 mm 4 m/s 732 mmHg 82%
    18:00 -5°C° 0 mm 4 m/s 732 mmHg 83%
    19:00 -6°C° 0 mm 5 m/s 733 mmHg 84%
    20:00 -6°C° 0 mm 5 m/s 734 mmHg 86%
    21:00 -6°C° 0.1 mm 5 m/s 734 mmHg 86%
    22:00 -6°C° 0.1 mm 5 m/s 734 mmHg 86%
    23:00 -6°C° 0.1 mm 6 m/s 734 mmHg 86%

    Amanhã, 23 Janeiro, Quinta-feira

    Tempo Temperatura Precipitação Vento Pressão Humidade
    00:00 -6°C° 0.1 mm 6 m/s 735 mmHg 85%
    01:00 -8°C° 0.1 mm 6 m/s 736 mmHg 83%
    02:00 -8°C° 0.1 mm 6 m/s 737 mmHg 81%
    03:00 -9°C° 0 mm 6 m/s 737 mmHg 79%
    04:00 -8°C° 0 mm 5 m/s 738 mmHg 76%
    05:00 -10°C° 0 mm 5 m/s 738 mmHg 74%
    06:00 -10°C° 0 mm 5 m/s 739 mmHg 73%
    07:00 -10°C° 0 mm 5 m/s 739 mmHg 71%
    08:00 -10°C° 0 mm 5 m/s 740 mmHg 70%
    09:00 -10°C° 0 mm 5 m/s 740 mmHg 71%
    10:00 -8°C° 0 mm 5 m/s 740 mmHg 71%
    11:00 -8°C° 0 mm 5 m/s 740 mmHg 72%
    12:00 -7°C° 0.1 mm 5 m/s 741 mmHg 73%
    13:00 -8°C° 0.1 mm 6 m/s 741 mmHg 73%
    14:00 -6°C° 0.1 mm 6 m/s 741 mmHg 74%
    15:00 -8°C° 0.1 mm 6 m/s 741 mmHg 72%
    16:00 -7°C° 0.1 mm 5 m/s 741 mmHg 70%
    17:00 -8°C° 0.1 mm 4 m/s 742 mmHg 69%
    18:00 -9°C° 0 mm 4 m/s 742 mmHg 71%
    19:00 -8°C° 0 mm 3 m/s 743 mmHg 73%
    20:00 -8°C° 0 mm 2 m/s 743 mmHg 75%
    21:00 -8°C° 0 mm 2 m/s 743 mmHg 76%
    22:00 -8°C° 0 mm 2 m/s 743 mmHg 78%
    23:00 -8°C° 0 mm 2 m/s 743 mmHg 79%

    Depois de amanhã, 24 Janeiro, Sexta-feira

    Tempo Temperatura Precipitação Vento Pressão Humidade
    00:00 -8°C° 0 mm 2 m/s 743 mmHg 78%
    01:00 -7°C° 0 mm 2 m/s 743 mmHg 78%
    02:00 -7°C° 0 mm 2 m/s 743 mmHg 77%
    03:00 -7°C° 0 mm 3 m/s 742 mmHg 82%
    04:00 -6°C° 0 mm 3 m/s 741 mmHg 86%
    05:00 -7°C° 0 mm 4 m/s 740 mmHg 91%
    06:00 -5°C° 0.1 mm 4 m/s 739 mmHg 92%
    07:00 -5°C° 0.1 mm 4 m/s 739 mmHg 93%
    08:00 -5°C° 0.1 mm 5 m/s 738 mmHg 94%
    09:00 -4°C° 0.6 mm 5 m/s 737 mmHg 94%
    10:00 -4°C° 0.6 mm 5 m/s 736 mmHg 94%
    11:00 -2°C° 0.6 mm 5 m/s 736 mmHg 94%
    12:00 -2°C° 0.2 mm 5 m/s 735 mmHg 95%
    13:00 -1°C° 0.2 mm 4 m/s 735 mmHg 96%
    14:00 0°C° 0.2 mm 4 m/s 734 mmHg 97%
    15:00 0°C° 0.1 mm 4 m/s 734 mmHg 95%
    16:00 0°C° 0.1 mm 4 m/s 734 mmHg 92%
    17:00 0°C° 0.1 mm 4 m/s 734 mmHg 89%
    18:00 -1°C° 0 mm 4 m/s 734 mmHg 89%
    19:00 -2°C° 0 mm 4 m/s 735 mmHg 88%
    20:00 -3°C° 0 mm 4 m/s 736 mmHg 87%
    21:00 -3°C° 0 mm 4 m/s 735 mmHg 89%
    22:00 -3°C° 0 mm 4 m/s 735 mmHg 90%
    23:00 -4°C° 0 mm 3 m/s 735 mmHg 91%

    25 Janeiro, Sábado

    Tempo Temperatura Precipitação Vento Pressão Humidade
    00:00 -4°C° 0 mm 3 m/s 735 mmHg 91%
    01:00 -4°C° 0 mm 3 m/s 735 mmHg 91%
    02:00 -4°C° 0 mm 3 m/s 735 mmHg 91%
    03:00 -4°C° 0 mm 3 m/s 734 mmHg 92%
    04:00 -2°C° 0 mm 3 m/s 734 mmHg 92%
    05:00 -3°C° 0 mm 4 m/s 734 mmHg 92%
    06:00 -1°C° 0 mm 3 m/s 734 mmHg 90%
    07:00 -1°C° 0 mm 3 m/s 733 mmHg 88%
    08:00 -1°C° 0 mm 3 m/s 733 mmHg 86%
    09:00 -2°C° 0 mm 4 m/s 733 mmHg 86%
    10:00 -1°C° 0 mm 4 m/s 733 mmHg 86%
    11:00 -1°C° 0 mm 5 m/s 733 mmHg 85%
    12:00 -1°C° 0 mm 5 m/s 732 mmHg 81%
    13:00 -1°C° 0 mm 5 m/s 731 mmHg 77%
    14:00 -2°C° 0 mm 6 m/s 731 mmHg 73%
    15:00 -2°C° 0.2 mm 6 m/s 731 mmHg 74%
    16:00 -3°C° 0.2 mm 7 m/s 731 mmHg 74%
    17:00 -4°C° 0.2 mm 8 m/s 731 mmHg 75%
    18:00 -5°C° 0 mm 8 m/s 732 mmHg 75%
    19:00 -4°C° 0 mm 7 m/s 732 mmHg 76%
    20:00 -5°C° 0 mm 6 m/s 733 mmHg 76%
    21:00 -5°C° 0 mm 6 m/s 734 mmHg 76%
    22:00 -5°C° 0 mm 6 m/s 734 mmHg 76%
    23:00 -6°C° 0 mm 6 m/s 735 mmHg 76%

    26 Janeiro, Domingo

    Tempo Temperatura Precipitação Vento Pressão Humidade
    00:00 -6°C° 0 mm 6 m/s 736 mmHg 76%
    01:00 -6°C° 0 mm 5 m/s 736 mmHg 76%
    02:00 -6°C° 0 mm 5 m/s 736 mmHg 76%
    03:00 -6°C° 0 mm 5 m/s 737 mmHg 77%
    04:00 -6°C° 0 mm 5 m/s 738 mmHg 78%
    05:00 -6°C° 0 mm 5 m/s 738 mmHg 79%
    06:00 -7°C° 0 mm 5 m/s 739 mmHg 80%
    07:00 -7°C° 0 mm 5 m/s 740 mmHg 81%
    08:00 -7°C° 0 mm 4 m/s 741 mmHg 82%
    09:00 -7°C° 0 mm 4 m/s 741 mmHg 81%
    10:00 -5°C° 0 mm 4 m/s 742 mmHg 80%
    11:00 -5°C° 0 mm 4 m/s 743 mmHg 79%
    12:00 -5°C° 0 mm 4 m/s 744 mmHg 79%
    13:00 -5°C° 0 mm 3 m/s 744 mmHg 79%
    14:00 -4°C° 0 mm 3 m/s 745 mmHg 79%
    15:00 -4°C° 0 mm 2 m/s 745 mmHg 82%
    16:00 -5°C° 0 mm 2 m/s 746 mmHg 85%
    17:00 -4°C° 0 mm 1 m/s 746 mmHg 88%
    18:00 -4°C° 0 mm 1 m/s 747 mmHg 89%
    19:00 -4°C° 0 mm 1 m/s 747 mmHg 91%
    20:00 -6°C° 0 mm 0 m/s 747 mmHg 92%
    21:00 -6°C° 0 mm 1 m/s 748 mmHg 92%
    22:00 -6°C° 0 mm 1 m/s 748 mmHg 93%
    23:00 -6°C° 0 mm 1 m/s 748 mmHg 93%

    27 Janeiro, Segunda-feira

    Tempo Temperatura Precipitação Vento Pressão Humidade
    00:00 -7°C° 0 mm 2 m/s 748 mmHg 93%
    01:00 -7°C° 0 mm 2 m/s 748 mmHg 92%
    02:00 -7°C° 0 mm 2 m/s 748 mmHg 92%
    03:00 -7°C° 0 mm 3 m/s 748 mmHg 92%
    04:00 -7°C° 0 mm 3 m/s 747 mmHg 91%
    05:00 -6°C° 0 mm 3 m/s 747 mmHg 91%
    06:00 -5°C° 0.3 mm 4 m/s 747 mmHg 92%
    07:00 -5°C° 0.3 mm 4 m/s 746 mmHg 93%
    08:00 -5°C° 0.3 mm 4 m/s 746 mmHg 95%
    09:00 -4°C° 0.4 mm 4 m/s 746 mmHg 95%
    10:00 -3°C° 0.4 mm 4 m/s 746 mmHg 95%
    11:00 -4°C° 0.4 mm 5 m/s 745 mmHg 95%
    12:00 -4°C° 0.3 mm 5 m/s 745 mmHg 94%
    13:00 -2°C° 0.3 mm 4 m/s 744 mmHg 94%
    14:00 -2°C° 0.3 mm 4 m/s 744 mmHg 93%
    15:00 -2°C° 0 mm 4 m/s 743 mmHg 93%
    16:00 -2°C° 0 mm 4 m/s 743 mmHg 93%
    17:00 -2°C° 0 mm 4 m/s 742 mmHg 93%
    18:00 -2°C° 0.1 mm 4 m/s 742 mmHg 94%
    19:00 -2°C° 0.1 mm 4 m/s 741 mmHg 95%
    20:00 -2°C° 0.1 mm 5 m/s 741 mmHg 97%
    21:00 -2°C° 0.3 mm 4 m/s 741 mmHg 97%
    22:00 -2°C° 0.3 mm 4 m/s 740 mmHg 97%
    23:00 -2°C° 0.3 mm 4 m/s 740 mmHg 97%
    Mostrar mais